Wind_Speed
31 33 34 35 35 36 37 37 36 37 38 40 42 43 41 40 39 37 36 37 38 39 41 43 44 45 45 44 45 46 47 47 48 49 50 51 52 53 55 57 59 60 61 61
36 37 38 38 38 37 38 39 39 40 41 41 42 42 41 40 40 40 39 40 41 42 43 43 44 44 45 47 49 50 50 50 50 50 50 50 51 53 54 55 56 57 57 57
38 38 40 42 41 41 41 41 40 41 41 42 42 42 41 40 39 39 40 40 41 43 44 45 46 49 51 52 52 51 50 50 49 49 49 50 51 52 53 53 53 53 53 53
37 39 40 38 38 38 38 38 38 39 39 40 39 39 39 39 39 39 40 42 43 44 45 47 49 50 50 51 51 51 50 49 48 48 48 48 49 50 50 49 49 49 49 50
32 33 35 36 34 32 32 32 33 33 33 34 36 36 37 36 37 38 39 40 42 44 46 48 49 50 51 51 50 49 47 46 46 45 46 46 47 47 47 46 47 47 48 48
26 27 28 29 29 29 30 31 30 32 33 34 35 37 37 37 38 40 41 43 45 47 49 50 50 50 49 48 46 45 44 43 43 43 43 44 44 44 44 45 46 46 46 47
21 22 23 24 24 25 26 27 29 31 33 34 36 37 38 39 40 42 43 44 45 46 46 46 45 45 44 43 42 42 42 42 41 41 41 42 42 43 44 44 44 45 45 45
17 19 19 20 21 22 22 23 26 28 30 31 33 34 36 37 38 39 39 40 41 41 42 42 41 41 41 40 40 39 39 38 39 39 40 40 41 42 42 43 43 43 43 41
15 17 16 17 19 20 22 23 24 25 27 29 30 31 32 33 35 36 37 38 38 39 39 39 38 38 37 37 36 36 36 37 37 38 38 39 40 41 41 41 40 39 37 35
14 14 16 16 17 19 21 22 23 25 26 28 29 30 31 32 33 34 34 35 35 35 35 34 33 32 32 32 32 33 34 35 36 37 38 39 39 39 38 37 35 33 31 29
14 15 16 17 18 19 21 22 23 25 26 27 28 29 30 30 30 30 30 30 29 28 27 26 26 27 28 29 30 31 33 35 36 37 37 37 36 34 32 30 29 28 27 25
14 15 16 16 18 19 20 21 22 23 24 25 25 25 25 25 24 24 24 23 22 21 21 22 23 24 26 27 29 32 33 34 34 33 32 31 30 28 27 26 25 24 22 20
13 13 13 14 15 15 16 17 18 18 19 19 19 18 18 17 17 17 16 16 16 16 17 19 21 23 25 27 29 30 31 31 30 29 27 26 24 23 22 21 19 17 16 15
12 12 12 12 12 11 12 12 12 11 11 11 11 11 11 10 10 10 10 11 12 14 16 18 21 23 25 26 27 28 27 26 25 24 22 21 19 18 16 15 14 13 12 11
10 9 9 8 7 7 7 6 5 4 4 4 4 4 5 5 5 6 7 9 11 14 16 19 21 23 24 25 25 24 23 21 20 19 17 16 14 12 11 10 9 9 9 7
8 7 6 5 5 5 5 4 3 2 1 1 1 1 2 3 4 5 7 10 12 15 17 20 22 23 24 24 22 21 19 18 16 15 14 12 10 9 8 7 7 8 8 9
5 5 5 5 5 6 6 6 6 5 4 4 5 6 6 6 7 9 10 12 14 16 19 21 23 24 23 22 21 19 17 16 14 13 11 10 8 8 8 8 9 10 12 14
3 3 4 4 5 6 7 7 7 7 8 8 9 9 9 10 10 11 12 14 16 18 21 23 24 24 23 21 20 18 16 15 14 12 11 10 10 10 11 12 13 15 16 17
2 1 3 3 4 5 6 6 7 8 10 10 11 11 11 11 12 13 14 16 18 20 23 24 24 24 23 22 20 18 16 15 14 13 13 13 13 14 15 16 17 17 17 17
3 1 1 2 3 4 5 6 7 9 10 11 11 11 11 12 13 15 16 18 20 22 24 25 25 25 24 23 21 19 18 17 16 15 15 16 16 17 17 18 18 18 17 16
5 3 2 2 3 4 5 6 7 9 10 10 11 11 12 13 14 16 17 19 21 23 24 25 26 26 26 25 23 21 19 18 17 17 17 17 18 18 18 18 18 17 16 16
7 5 4 4 4 4 5 6 7 9 9 9 10 10 12 13 15 16 18 19 21 23 24 25 27 27 27 26 24 23 22 20 18 17 17 17 17 17 17 17 17 16 16 15
9 8 7 6 5 5 5 6 7 8 8 9 9 10 11 13 14 15 17 19 21 23 24 26 27 28 27 26 25 24 22 20 19 17 17 16 16 16 16 16 16 17 17 16
12 10 9 8 7 6 6 7 7 8 8 8 8 9 11 12 13 14 16 18 20 22 24 26 27 28 28 28 27 25 23 21 18 16 15 15 15 16 16 16 16 16 17 17
14 13 11 10 9 8 8 8 8 8 8 8 8 8 10 11 12 13 15 17 19 20 23 25 26 28 29 29 28 27 26 23 20 16 14 13 14 15 15 16 17 17 17 18
16 16 14 12 11 10 10 9 9 9 9 8 8 8 9 10 11 12 14 16 17 19 21 23 24 26 28 29 30 30 28 27 25 21 18 16 15 15 15 16 16 17 18 18
17 17 16 14 13 12 11 11 11 11 10 10 9 8 8 9 9 11 13 14 16 18 20 21 22 24 26 28 30 31 31 31 30 28 25 22 20 18 18 17 17 17 18 18
Wind_Direction
247 243 241 242 242 244 246 247 249 251 255 257 258 259 260 260 260 263 269 275 280 285 289 291 292 292 292 292 292 294 296 296 296 296 296 295 294 294 293 293 293 294 294 295
252 251 247 245 244 245 247 250 251 252 254 257 258 258 259 260 263 268 274 279 283 286 288 289 290 290 290 292 295 297 299 298 297 296 295 293 293 293 293 293 293 294 294 295
258 257 253 249 247 247 248 249 253 256 258 261 263 264 268 271 273 276 280 282 284 285 286 287 288 290 292 295 297 298 298 298 297 295 293 293 293 294 294 294 294 294 295 296
262 262 262 260 259 259 259 259 262 264 267 270 273 275 278 280 281 281 281 282 282 284 285 288 290 292 294 296 297 298 297 296 295 294 293 294 294 294 294 294 294 295 296 297
265 267 269 270 272 272 271 272 272 272 273 273 274 275 276 277 276 276 278 279 281 284 287 290 292 295 296 296 297 296 295 294 293 293 294 294 294 294 294 294 295 296 297 297
268 269 272 272 271 271 272 272 271 270 270 269 270 270 272 273 274 275 277 280 284 287 290 292 293 295 295 295 294 294 293 293 293 294 293 293 293 293 294 295 295 296 297 297
271 271 271 272 272 271 269 267 266 267 267 268 269 271 274 276 278 280 283 285 287 289 290 292 293 293 293 293 292 292 293 293 293 293 292 292 293 294 294 295 296 296 297 297
274 272 271 271 270 269 269 267 265 265 267 268 270 272 275 277 280 282 284 286 287 289 290 291 291 291 291 291 291 292 292 292 292 292 292 293 294 295 295 296 296 297 297 297
274 270 270 270 268 267 266 264 264 266 267 269 270 272 274 276 279 281 283 285 287 288 289 290 290 290 290 291 291 291 292 293 294 294 295 295 295 296 296 297 297 298 298 299
279 274 272 272 270 266 265 266 267 267 269 271 272 274 276 278 280 282 284 286 287 289 289 290 290 290 291 292 292 294 295 296 297 297 297 297 297 297 298 299 299 300 300 300
282 278 275 273 271 269 268 267 268 269 270 272 274 276 278 280 282 284 286 288 289 291 293 294 294 295 296 296 297 298 299 299 299 299 298 298 299 300 301 301 302 302 302 302
289 286 283 280 277 274 272 270 270 271 272 273 275 278 280 282 284 287 289 291 294 297 299 300 301 302 303 303 303 303 303 302 302 302 302 302 303 303 303 304 305 306 306 307
297 295 292 289 286 282 279 277 276 275 275 275 277 279 281 284 288 292 296 300 302 305 306 308 309 309 310 310 309 309 308 308 307 307 307 307 307 308 309 311 313 314 315 316
307 305 303 303 302 297 293 288 283 279 278 278 279 278 284 291 296 302 308 313 317 318 319 319 319 319 319 319 319 318 316 315 314 313 313 314 315 316 318 321 325 328 330 331
316 315 314 317 322 326 323 313 300 287 286 285 289 289 298 310 316 321 332 335 335 334 332 331 331 331 330 330 329 328 327 326 325 325 326 327 327 329 332 337 343 349 356 14
321 328 336 347 356 4 15 27 45 63 68 48 15 13 22 28 25 15 6 358 351 346 344 343 343 342 341 341 341 341 341 340 339 340 342 345 348 354 1 10 17 27 45 67
322 342 4 26 42 48 51 54 64 77 87 92 90 87 80 66 49 33 18 7 1 359 358 357 355 354 353 353 353 355 356 356 357 360 5 13 24 34 42 48 56 67 77 85
313 360 25 45 58 63 65 69 75 80 87 95 94 87 76 63 48 34 23 17 14 13 11 8 6 5 5 5 7 9 10 12 17 24 33 45 54 58 64 71 78 83 86 89
267 11 38 58 71 80 81 81 85 88 93 95 90 82 71 60 48 38 31 28 26 24 20 18 16 16 17 19 20 21 23 29 37 45 54 60 66 71 76 80 83 86 86 85
231 208 72 90 99 97 97 97 96 95 96 95 89 81 70 59 49 43 40 37 34 31 28 26 25 25 27 28 29 32 37 43 50 57 65 71 75 79 81 82 83 83 82 80
219 202 176 144 127 116 114 111 108 105 103 99 92 81 70 60 53 49 45 43 39 36 33 31 30 31 32 34 36 40 45 50 57 65 71 76 79 80 81 81 80 79 77 76
213 203 193 175 152 137 129 124 120 116 112 105 95 83 71 63 57 54 51 48 44 40 37 35 35 35 36 38 41 45 49 55 61 67 73 77 79 80 80 79 77 75 74 72
211 204 197 188 175 158 146 138 133 127 122 113 101 86 74 67 63 59 55 52 48 44 42 40 40 40 41 42 44 46 49 53 60 67 72 76 78 78 78 77 76 74 72 70
210 205 200 194 186 177 164 153 147 141 136 126 110 93 79 72 68 64 60 56 53 49 47 45 44 43 44 45 46 47 49 51 56 63 70 75 77 77 76 76 76 74 72 71
209 205 202 196 192 187 178 168 161 157 152 141 124 106 89 79 74 69 65 61 58 54 51 49 47 46 46 47 47 48 49 50 54 60 68 75 79 79 77 76 76 76 76 76
207 205 201 197 193 189 186 180 173 168 164 156 141 122 103 90 82 76 71 67 64 59 56 52 50 49 49 49 49 50 51 53 55 59 67 76 82 82 80 78 79 79 79 78
205 204 203 201 198 195 192 188 183 178 175 168 158 141 121 105 94 85 78 74 70 65 60 57 54 53 52 52 52 53 54 56 58 61 66 72 79 82 81 80 81 81 81 80
Height
5737 5739 5742 5744 5746 5749 5751 5753 5756 5757 5758 5759 5760 5760 5761 5761 5760 5760 5761 5761 5760 5759 5758 5756 5754 5752 5750 5747 5744 5741 5738 5735 5731 5727 5723 5719 5714 5710 5705 5700 5695 5689 5684 5678
5728 5730 5733 5735 5738 5740 5742 5744 5746 5748 5749 5750 5749 5750 5750 5750 5750 5751 5751 5750 5750 5749 5747 5746 5743 5741 5739 5736 5733 5729 5726 5722 5718 5714 5709 5705 5700 5696 5691 5686 5681 5675 5670 5664
5719 5721 5723 5726 5729 5731 5733 5734 5737 5739 5741 5740 5740 5740 5740 5740 5741 5740 5740 5739 5739 5738 5736 5734 5732 5730 5727 5724 5720 5717 5713 5708 5704 5700 5695 5691 5686 5682 5677 5672 5667 5661 5656 5651
5711 5713 5715 5719 5719 5721 5723 5725 5727 5729 5729 5730 5730 5730 5730 5730 5730 5730 5729 5729 5728 5726 5724 5722 5719 5716 5713 5710 5707 5703 5699 5695 5691 5686 5682 5677 5673 5668 5663 5658 5654 5649 5644 5639
5703 5704 5706 5710 5711 5712 5714 5716 5718 5719 5719 5720 5721 5721 5721 5721 5720 5720 5719 5718 5716 5714 5712 5710 5707 5704 5701 5697 5693 5690 5686 5682 5677 5673 5669 5664 5660 5655 5650 5646 5642 5637 5632 5627
5696 5697 5699 5702 5703 5704 5707 5708 5710 5710 5710 5711 5712 5712 5713 5712 5711 5710 5709 5707 5705 5703 5701 5698 5695 5691 5688 5684 5680 5676 5672 5668 5664 5660 5656 5651 5647 5643 5638 5634 5630 5625 5620 5615
5690 5691 5692 5694 5694 5696 5700 5701 5700 5700 5701 5701 5702 5702 5702 5701 5700 5699 5697 5696 5694 5691 5689 5686 5683 5679 5676 5672 5668 5664 5660 5656 5652 5648 5644 5640 5635 5631 5626 5622 5618 5613 5609 5604
5685 5686 5688 5687 5688 5690 5691 5691 5692 5692 5692 5692 5692 5692 5692 5691 5690 5689 5687 5685 5683 5681 5678 5675 5672 5668 5664 5661 5657 5653 5649 5645 5641 5637 5632 5628 5623 5619 5615 5610 5606 5601 5597 5593
5681 5683 5682 5682 5682 5683 5684 5684 5684 5684 5684 5684 5684 5684 5683 5683 5682 5680 5678 5676 5674 5671 5668 5665 5661 5658 5654 5650 5646 5642 5638 5634 5630 5625 5621 5617 5612 5608 5603 5599 5594 5590 5586 5582
5677 5677 5677 5677 5677 5677 5677 5677 5677 5677 5676 5676 5676 5676 5675 5674 5673 5671 5669 5667 5664 5661 5658 5655 5652 5648 5645 5641 5637 5632 5628 5623 5619 5615 5610 5605 5601 5597 5592 5588 5584 5580 5577 5574
5673 5673 5672 5672 5671 5671 5671 5670 5670 5669 5669 5668 5668 5668 5667 5666 5664 5663 5661 5658 5656 5653 5650 5647 5644 5640 5636 5632 5628 5623 5618 5614 5609 5604 5599 5595 5591 5587 5583 5579 5576 5573 5569 5566
5670 5669 5668 5667 5666 5665 5664 5664 5663 5662 5662 5661 5660 5660 5659 5658 5657 5655 5653 5651 5649 5647 5644 5641 5637 5633 5629 5625 5620 5615 5609 5604 5599 5595 5590 5586 5583 5579 5575 5572 5569 5565 5562 5559
5666 5664 5663 5662 5660 5659 5658 5657 5656 5656 5655 5655 5654 5654 5653 5652 5651 5650 5648 5647 5644 5642 5639 5636 5632 5628 5623 5617 5612 5606 5601 5596 5591 5586 5583 5579 5575 5572 5569 5566 5563 5560 5557 5554
5662 5661 5659 5658 5656 5655 5653 5652 5651 5650 5650 5650 5650 5650 5650 5649 5648 5647 5646 5644 5641 5639 5635 5631 5627 5622 5617 5611 5605 5599 5594 5589 5584 5580 5576 5573 5570 5567 5564 5561 5559 5556 5554 5552
5660 5658 5657 5655 5653 5652 5650 5648 5648 5648 5648 5648 5648 5648 5648 5647 5646 5645 5644 5642 5639 5636 5632 5628 5623 5617 5611 5605 5599 5594 5588 5583 5579 5575 5572 5569 5566 5564 5561 5559 5557 5555 5553 5551
5659 5657 5656 5654 5652 5651 5649 5648 5647 5647 5647 5648 5648 5648 5648 5647 5646 5645 5643 5641 5638 5634 5630 5625 5619 5613 5607 5601 5595 5590 5585 5580 5576 5573 5570 5567 5564 5562 5561 5559 5557 5556 5554 5553
5658 5657 5655 5654 5653 5651 5650 5649 5648 5648 5648 5648 5649 5649 5648 5648 5647 5645 5643 5640 5637 5633 5628 5622 5616 5610 5604 5598 5593 5588 5583 5579 5575 5572 5569 5567 5565 5563 5562 5560 5559 5558 5557 5557
5657 5657 5656 5655 5653 5653 5652 5651 5651 5650 5650 5650 5650 5650 5650 5649 5647 5646 5643 5640 5636 5632 5627 5621 5615 5609 5603 5598 5592 5588 5583 5579 5576 5573 5571 5568 5567 5565 5564 5563 5562 5562 5562 5561
5657 5657 5656 5655 5655 5654 5654 5653 5653 5653 5652 5653 5653 5652 5652 5651 5649 5647 5644 5641 5637 5632 5627 5622 5616 5610 5604 5599 5594 5589 5585 5582 5578 5576 5574 5572 5570 5569 5568 5567 5567 5567 5567 5567
5657 5657 5657 5656 5656 5656 5655 5655 5655 5655 5655 5655 5655 5655 5654 5653 5651 5648 5645 5642 5638 5634 5629 5624 5618 5613 5607 5602 5597 5592 5588 5585 5582 5580 5578 5576 5575 5574 5573 5573 5572 5572 5572 5571
5656 5657 5657 5657 5657 5657 5657 5657 5657 5657 5657 5657 5658 5657 5656 5655 5653 5650 5647 5644 5641 5636 5632 5627 5622 5616 5611 5605 5600 5596 5592 5589 5587 5585 5583 5582 5581 5580 5579 5578 5578 5577 5576 5576
5655 5656 5657 5657 5657 5658 5658 5658 5658 5659 5659 5660 5660 5659 5658 5657 5655 5653 5651 5647 5644 5640 5636 5631 5626 5620 5615 5610 5605 5601 5597 5594 5592 5590 5588 5587 5586 5585 5584 5583 5583 5582 5581 5580
5653 5655 5656 5657 5658 5658 5659 5659 5660 5661 5661 5662 5662 5662 5661 5659 5658 5656 5654 5651 5647 5644 5640 5635 5630 5625 5620 5615 5610 5606 5602 5599 5597 5595 5593 5592 5591 5590 5589 5588 5587 5587 5586 5585
5651 5653 5655 5656 5657 5658 5659 5660 5661 5662 5663 5663 5664 5664 5663 5662 5661 5659 5657 5654 5652 5648 5645 5640 5636 5631 5626 5621 5616 5612 5608 5604 5601 5599 5597 5596 5595 5595 5594 5593 5592 5591 5590 5590
5649 5652 5654 5655 5657 5658 5659 5660 5662 5663 5664 5665 5665 5665 5665 5665 5664 5663 5661 5658 5656 5653 5649 5646 5642 5638 5633 5628 5623 5618 5613 5609 5606 5603 5601 5600 5599 5599 5598 5598 5597 5596 5595 5595
5647 5650 5652 5654 5656 5657 5659 5660 5662 5663 5664 5666 5667 5667 5667 5667 5667 5666 5664 5662 5660 5657 5654 5651 5648 5644 5640 5635 5630 5625 5620 5616 5611 5608 5605 5604 5603 5603 5603 5602 5601 5601 5600 5600
5644 5647 5650 5652 5654 5656 5658 5659 5661 5663 5664 5666 5667 5668 5669 5669 5669 5668 5667 5665 5664 5661 5659 5656 5654 5650 5647 5642 5638 5633 5629 5624 5619 5615 5612 5610 5609 5608 5607 5607 5606 5606 5605 5605